Year,Month,Day,Hour,Minute,Value (Times are PST for temperature in C)
2016,08,15,00,00,13.30
2016,08,15,00,01,13.30
2016,08,15,00,02,13.30
2016,08,15,00,03,13.30
2016,08,15,00,04,13.30
2016,08,15,00,05,13.30
2016,08,15,00,06,13.30
2016,08,15,00,07,13.30
2016,08,15,00,08,13.30
2016,08,15,00,09,13.30
2016,08,15,00,10,13.30
2016,08,15,00,11,13.30
2016,08,15,00,12,13.30
2016,08,15,00,13,13.30
2016,08,15,00,14,13.30
2016,08,15,00,15,13.30
2016,08,15,00,16,13.30
2016,08,15,00,17,13.30
2016,08,15,00,18,13.30
2016,08,15,00,19,13.30
2016,08,15,00,20,13.30
2016,08,15,00,21,13.30
2016,08,15,00,22,13.30
2016,08,15,00,23,13.30
2016,08,15,00,24,13.30
2016,08,15,00,25,13.30
2016,08,15,00,26,13.30
2016,08,15,00,27,13.30
2016,08,15,00,28,13.30
2016,08,15,00,29,13.30
2016,08,15,00,30,13.30
2016,08,15,00,31,13.30
2016,08,15,00,32,13.30
2016,08,15,00,33,13.30
2016,08,15,00,34,13.30
2016,08,15,00,35,13.30
2016,08,15,00,36,13.30
2016,08,15,00,37,13.30
2016,08,15,00,38,13.30
2016,08,15,00,39,13.30
2016,08,15,00,40,13.30
2016,08,15,00,41,13.30
2016,08,15,00,42,13.30
2016,08,15,00,43,13.30
2016,08,15,00,44,13.30
2016,08,15,00,45,13.30
2016,08,15,00,46,13.30
2016,08,15,00,47,13.30
2016,08,15,00,48,13.30
2016,08,15,00,49,13.30
2016,08,15,00,50,13.30
2016,08,15,00,51,13.30
2016,08,15,00,52,13.30
2016,08,15,00,53,13.30
2016,08,15,00,54,13.30
2016,08,15,00,55,13.30
2016,08,15,00,56,13.30
2016,08,15,00,57,13.30
2016,08,15,00,58,13.30
2016,08,15,00,59,13.30
2016,08,15,01,00,13.30
2016,08,15,01,01,13.30
2016,08,15,01,02,13.30
2016,08,15,01,03,13.30
2016,08,15,01,04,13.20
2016,08,15,01,05,13.20
2016,08,15,01,06,13.20
2016,08,15,01,07,13.20
2016,08,15,01,08,13.20
2016,08,15,01,09,13.20
2016,08,15,01,10,13.20
2016,08,15,01,11,13.20
2016,08,15,01,12,13.20
2016,08,15,01,13,13.30
2016,08,15,01,14,13.30
2016,08,15,01,15,13.20
2016,08,15,01,16,13.20
2016,08,15,01,17,13.20
2016,08,15,01,18,13.20
2016,08,15,01,19,13.20
2016,08,15,01,20,13.20
2016,08,15,01,21,13.20
2016,08,15,01,22,13.20
2016,08,15,01,23,13.20
2016,08,15,01,24,13.20
2016,08,15,01,25,13.20
2016,08,15,01,26,13.20
2016,08,15,01,27,13.20
2016,08,15,01,28,13.20
2016,08,15,01,29,13.20
2016,08,15,01,30,13.20
2016,08,15,01,31,13.20
2016,08,15,01,32,13.20
2016,08,15,01,33,13.20
2016,08,15,01,34,13.20
2016,08,15,01,35,13.20
2016,08,15,01,36,13.20
2016,08,15,01,37,13.20
2016,08,15,01,38,13.20
2016,08,15,01,39,13.20
2016,08,15,01,40,13.20
2016,08,15,01,41,13.20
2016,08,15,01,42,13.20
2016,08,15,01,43,13.20
2016,08,15,01,44,13.20
2016,08,15,01,45,13.20
2016,08,15,01,46,13.20
2016,08,15,01,47,13.20
2016,08,15,01,48,13.20
2016,08,15,01,49,13.20
2016,08,15,01,50,13.20
2016,08,15,01,51,13.20
2016,08,15,01,52,13.20
2016,08,15,01,53,13.20
2016,08,15,01,54,13.20
2016,08,15,01,55,13.10
2016,08,15,01,56,13.10
2016,08,15,01,57,13.10
2016,08,15,01,58,13.10
2016,08,15,01,59,13.10
2016,08,15,02,00,13.10
2016,08,15,02,01,13.10
2016,08,15,02,02,13.10
2016,08,15,02,03,13.10
2016,08,15,02,04,13.00
2016,08,15,02,05,13.00
2016,08,15,02,06,13.00
2016,08,15,02,07,13.00
2016,08,15,02,08,13.00
2016,08,15,02,09,13.00
2016,08,15,02,10,13.00
2016,08,15,02,11,12.90
2016,08,15,02,12,12.90
2016,08,15,02,13,12.90
2016,08,15,02,14,12.90
2016,08,15,02,15,12.90
2016,08,15,02,16,12.90
2016,08,15,02,17,12.90
2016,08,15,02,18,12.90
2016,08,15,02,19,12.90
2016,08,15,02,20,12.90
2016,08,15,02,21,12.80
2016,08,15,02,22,12.80
2016,08,15,02,23,12.80
2016,08,15,02,24,12.80
2016,08,15,02,25,12.80
2016,08,15,02,26,12.80
2016,08,15,02,27,12.80
2016,08,15,02,28,12.80
2016,08,15,02,29,12.80
2016,08,15,02,30,12.80
2016,08,15,02,31,12.80
2016,08,15,02,32,12.80
2016,08,15,02,33,12.80
2016,08,15,02,34,12.70
2016,08,15,02,35,12.70
2016,08,15,02,36,12.70
2016,08,15,02,37,12.70
2016,08,15,02,38,12.70
2016,08,15,02,39,12.70
2016,08,15,02,40,12.70
2016,08,15,02,41,12.70
2016,08,15,02,42,12.70
2016,08,15,02,43,12.70
2016,08,15,02,44,12.70
2016,08,15,02,45,12.60
2016,08,15,02,46,12.60
2016,08,15,02,47,12.60
2016,08,15,02,48,12.60
2016,08,15,02,49,12.60
2016,08,15,02,50,12.60
2016,08,15,02,51,12.60
2016,08,15,02,52,12.60
2016,08,15,02,53,12.60
2016,08,15,02,54,12.60
2016,08,15,02,55,12.60
2016,08,15,02,56,12.60
2016,08,15,02,57,12.60
2016,08,15,02,58,12.60
2016,08,15,02,59,12.60
2016,08,15,03,00,12.60
2016,08,15,03,01,12.60
2016,08,15,03,02,12.60
2016,08,15,03,03,12.60
2016,08,15,03,04,12.60
2016,08,15,03,05,12.60
2016,08,15,03,06,12.50
2016,08,15,03,07,12.50
2016,08,15,03,08,12.50
2016,08,15,03,09,12.40
2016,08,15,03,10,12.40
2016,08,15,03,11,12.40
2016,08,15,03,12,12.40
2016,08,15,03,13,12.40
2016,08,15,03,14,12.40
2016,08,15,03,15,12.40
2016,08,15,03,16,12.40
2016,08,15,03,17,12.40
2016,08,15,03,18,12.40
2016,08,15,03,19,12.30
2016,08,15,03,20,12.30
2016,08,15,03,21,12.30
2016,08,15,03,22,12.30
2016,08,15,03,23,12.30
2016,08,15,03,24,12.30
2016,08,15,03,25,12.30
2016,08,15,03,26,12.30
2016,08,15,03,27,12.30
2016,08,15,03,28,12.30
2016,08,15,03,29,12.30
2016,08,15,03,30,12.30
2016,08,15,03,31,12.30
2016,08,15,03,32,12.30
2016,08,15,03,33,12.20
2016,08,15,03,34,12.20
2016,08,15,03,35,12.20
2016,08,15,03,36,12.20
2016,08,15,03,37,12.20
2016,08,15,03,38,12.20
2016,08,15,03,39,12.20
2016,08,15,03,40,12.20
2016,08,15,03,41,12.20
2016,08,15,03,42,12.20
2016,08,15,03,43,12.20
2016,08,15,03,44,12.20
2016,08,15,03,45,12.20
2016,08,15,03,46,12.20
2016,08,15,03,47,12.20
2016,08,15,03,48,12.20
2016,08,15,03,49,12.10
2016,08,15,03,50,12.10
2016,08,15,03,51,12.10
2016,08,15,03,52,12.10
2016,08,15,03,53,12.10
2016,08,15,03,54,12.10
2016,08,15,03,55,12.10
2016,08,15,03,56,12.10
2016,08,15,03,57,12.10
2016,08,15,03,58,12.10
2016,08,15,03,59,12.10
2016,08,15,04,00,12.10
2016,08,15,04,01,12.10
2016,08,15,04,02,12.10
2016,08,15,04,03,12.10
2016,08,15,04,04,12.10
2016,08,15,04,05,12.10
2016,08,15,04,06,12.10
2016,08,15,04,07,12.10
2016,08,15,04,08,12.10
2016,08,15,04,09,12.10
2016,08,15,04,10,12.10
2016,08,15,04,11,12.10
2016,08,15,04,12,12.10
2016,08,15,04,13,12.10
2016,08,15,04,14,12.10
2016,08,15,04,15,12.10
2016,08,15,04,16,12.10
2016,08,15,04,17,12.10
2016,08,15,04,18,12.10
2016,08,15,04,19,12.10
2016,08,15,04,20,12.00
2016,08,15,04,21,12.00
2016,08,15,04,22,12.00
2016,08,15,04,23,12.00
2016,08,15,04,24,12.00
2016,08,15,04,25,12.00
2016,08,15,04,26,12.00
2016,08,15,04,27,12.00
2016,08,15,04,28,12.00
2016,08,15,04,29,12.00
2016,08,15,04,30,12.00
2016,08,15,04,31,12.00
2016,08,15,04,32,12.00
2016,08,15,04,33,12.00
2016,08,15,04,34,11.90
2016,08,15,04,35,11.90
2016,08,15,04,36,11.90
2016,08,15,04,37,11.90
2016,08,15,04,38,12.00
2016,08,15,04,39,12.00
2016,08,15,04,40,12.00
2016,08,15,04,41,12.00
2016,08,15,04,42,11.90
2016,08,15,04,43,11.90
2016,08,15,04,44,11.90
2016,08,15,04,45,11.90
2016,08,15,04,46,11.90
2016,08,15,04,47,11.90
2016,08,15,04,48,11.90
2016,08,15,04,49,11.90
2016,08,15,04,50,11.90
2016,08,15,04,51,11.90
2016,08,15,04,52,11.80
2016,08,15,04,53,11.80
2016,08,15,04,54,11.80
2016,08,15,04,55,11.80
2016,08,15,04,56,11.80
2016,08,15,04,57,11.80
2016,08,15,04,58,11.70
2016,08,15,04,59,11.70
2016,08,15,05,00,11.70
2016,08,15,05,01,11.70
2016,08,15,05,02,11.70
2016,08,15,05,03,11.70
2016,08,15,05,04,11.70
2016,08,15,05,05,11.70
2016,08,15,05,06,11.70
2016,08,15,05,07,11.70
2016,08,15,05,08,11.70
2016,08,15,05,09,11.70
2016,08,15,05,10,11.70
2016,08,15,05,11,11.70
2016,08,15,05,12,11.70
2016,08,15,05,13,11.70
2016,08,15,05,14,11.60
2016,08,15,05,15,11.60
2016,08,15,05,16,11.60
2016,08,15,05,17,11.60
2016,08,15,05,18,11.60
2016,08,15,05,19,11.60
2016,08,15,05,20,11.60
2016,08,15,05,21,11.60
2016,08,15,05,22,11.60
2016,08,15,05,23,11.60
2016,08,15,05,24,11.60
2016,08,15,05,25,11.50
2016,08,15,05,26,11.50
2016,08,15,05,27,11.50
2016,08,15,05,28,11.50
2016,08,15,05,29,11.50
2016,08,15,05,30,11.50
2016,08,15,05,31,11.50
2016,08,15,05,32,11.50
2016,08,15,05,33,11.50
2016,08,15,05,34,11.40
2016,08,15,05,35,11.50
2016,08,15,05,36,11.50
2016,08,15,05,37,11.40
2016,08,15,05,38,11.40
2016,08,15,05,39,11.40
2016,08,15,05,40,11.40
2016,08,15,05,41,11.40
2016,08,15,05,42,11.40
2016,08,15,05,43,11.40
2016,08,15,05,44,11.40
2016,08,15,05,45,11.40
2016,08,15,05,46,11.40
2016,08,15,05,47,11.40
2016,08,15,05,48,11.40
2016,08,15,05,49,11.40
2016,08,15,05,50,11.30
2016,08,15,05,51,11.30
2016,08,15,05,52,11.30
2016,08,15,05,53,11.30
2016,08,15,05,54,11.30
2016,08,15,05,55,11.30
2016,08,15,05,56,11.30
2016,08,15,05,57,11.30
2016,08,15,05,58,11.20
2016,08,15,05,59,11.20
2016,08,15,06,00,11.20
2016,08,15,06,01,11.20
2016,08,15,06,02,11.20
2016,08,15,06,03,11.20
2016,08,15,06,04,11.20
2016,08,15,06,05,11.20
2016,08,15,06,06,11.20
2016,08,15,06,07,11.20
2016,08,15,06,08,11.20
2016,08,15,06,09,11.20
2016,08,15,06,10,11.20
2016,08,15,06,11,11.10
2016,08,15,06,12,11.10
2016,08,15,06,13,11.10
2016,08,15,06,14,11.10
2016,08,15,06,15,11.10
2016,08,15,06,16,11.10
2016,08,15,06,17,11.10
2016,08,15,06,18,11.10
2016,08,15,06,19,11.10
2016,08,15,06,20,11.10
2016,08,15,06,21,11.10
2016,08,15,06,22,11.10
2016,08,15,06,23,11.10
2016,08,15,06,24,11.10
2016,08,15,06,25,11.10
2016,08,15,06,26,11.10
2016,08,15,06,27,11.10
2016,08,15,06,28,11.10
2016,08,15,06,29,11.10
2016,08,15,06,30,11.10
2016,08,15,06,31,11.10
2016,08,15,06,32,11.10
2016,08,15,06,33,11.10
2016,08,15,06,34,11.00
2016,08,15,06,35,11.00
2016,08,15,06,36,11.00
2016,08,15,06,37,11.00
2016,08,15,06,38,11.00
2016,08,15,06,39,11.00
2016,08,15,06,40,11.10
2016,08,15,06,41,11.10
2016,08,15,06,42,11.10
2016,08,15,06,43,11.10
2016,08,15,06,44,11.10
2016,08,15,06,45,11.10
2016,08,15,06,46,11.20
2016,08,15,06,47,11.20
2016,08,15,06,48,11.20
2016,08,15,06,49,11.20
2016,08,15,06,50,11.20
2016,08,15,06,51,11.20
2016,08,15,06,52,11.20
2016,08,15,06,53,11.20
2016,08,15,06,54,11.20
2016,08,15,06,55,11.20
2016,08,15,06,56,11.20
2016,08,15,06,57,11.20
2016,08,15,06,58,11.20
2016,08,15,06,59,11.20
2016,08,15,07,00,11.30
2016,08,15,07,01,11.30
2016,08,15,07,02,11.30
2016,08,15,07,03,11.40
2016,08,15,07,04,11.40
2016,08,15,07,05,11.50
2016,08,15,07,06,11.50
2016,08,15,07,07,11.60
2016,08,15,07,08,11.60
2016,08,15,07,09,11.70
2016,08,15,07,10,11.70
2016,08,15,07,11,11.70
2016,08,15,07,12,11.70
2016,08,15,07,13,11.70
2016,08,15,07,14,11.80
2016,08,15,07,15,11.80
2016,08,15,07,16,11.80
2016,08,15,07,17,11.80
2016,08,15,07,18,11.80
2016,08,15,07,19,11.80
2016,08,15,07,20,11.80
2016,08,15,07,21,11.80
2016,08,15,07,22,11.90
2016,08,15,07,23,11.90
2016,08,15,07,24,12.00
2016,08,15,07,25,12.00
2016,08,15,07,26,12.10
2016,08,15,07,27,12.10
2016,08,15,07,28,12.10
2016,08,15,07,29,12.10
2016,08,15,07,30,12.20
2016,08,15,07,31,12.20
2016,08,15,07,32,12.30
2016,08,15,07,33,12.30
2016,08,15,07,34,12.40
2016,08,15,07,35,12.40
2016,08,15,07,36,12.50
2016,08,15,07,37,12.60
2016,08,15,07,38,12.80
2016,08,15,07,39,12.90
2016,08,15,07,40,13.00
2016,08,15,07,41,13.00
2016,08,15,07,42,13.10
2016,08,15,07,43,13.10
2016,08,15,07,44,13.10
2016,08,15,07,45,13.10
2016,08,15,07,46,13.10
2016,08,15,07,47,13.20
2016,08,15,07,48,13.20
2016,08,15,07,49,13.20
2016,08,15,07,50,13.30
2016,08,15,07,51,13.30
2016,08,15,07,52,13.30
2016,08,15,07,53,13.30
2016,08,15,07,54,13.20
2016,08,15,07,55,13.20
2016,08,15,07,56,13.20
2016,08,15,07,57,13.20
2016,08,15,07,58,13.30
2016,08,15,07,59,13.30
2016,08,15,08,00,13.30
2016,08,15,08,01,13.30
2016,08,15,08,02,13.30
2016,08,15,08,03,13.30
2016,08,15,08,04,13.40
2016,08,15,08,05,13.50
2016,08,15,08,06,13.60
2016,08,15,08,07,13.60
2016,08,15,08,08,13.60
2016,08,15,08,09,13.60
2016,08,15,08,10,13.60
2016,08,15,08,11,13.60
2016,08,15,08,12,13.60
2016,08,15,08,13,13.60
2016,08,15,08,14,13.50
2016,08,15,08,15,13.60
2016,08,15,08,16,13.60
2016,08,15,08,17,13.60
2016,08,15,08,18,13.60
2016,08,15,08,19,13.60
2016,08,15,08,20,13.60
2016,08,15,08,21,13.60
2016,08,15,08,22,13.60
2016,08,15,08,23,13.60
2016,08,15,08,24,13.70
2016,08,15,08,25,13.70
2016,08,15,08,26,13.70
2016,08,15,08,27,13.70
2016,08,15,08,28,13.80
2016,08,15,08,29,13.80
2016,08,15,08,30,13.90
2016,08,15,08,31,13.90
2016,08,15,08,32,13.90
2016,08,15,08,33,13.90
2016,08,15,08,34,13.90
2016,08,15,08,35,13.90
2016,08,15,08,36,13.90
2016,08,15,08,37,13.90
2016,08,15,08,38,13.90
2016,08,15,08,39,14.00
2016,08,15,08,40,14.00
2016,08,15,08,41,14.10
2016,08,15,08,42,14.10
2016,08,15,08,43,14.20
2016,08,15,08,44,14.30
2016,08,15,08,45,14.40
2016,08,15,08,46,14.50
2016,08,15,08,47,14.50
2016,08,15,08,48,14.60
2016,08,15,08,49,14.60
2016,08,15,08,50,14.70
2016,08,15,08,51,14.70
2016,08,15,08,52,14.70
2016,08,15,08,53,14.70
2016,08,15,08,54,14.70
2016,08,15,08,55,14.70
2016,08,15,08,56,14.70
2016,08,15,08,57,14.70
2016,08,15,08,58,14.70
2016,08,15,08,59,14.70
2016,08,15,09,00,14.70
2016,08,15,09,01,14.70
2016,08,15,09,02,14.80
2016,08,15,09,03,14.80
2016,08,15,09,04,14.80
2016,08,15,09,05,14.80
2016,08,15,09,06,14.80
2016,08,15,09,07,14.80
2016,08,15,09,08,14.80
2016,08,15,09,09,14.80
2016,08,15,09,10,14.80
2016,08,15,09,11,14.80
2016,08,15,09,12,14.80
2016,08,15,09,13,14.80
2016,08,15,09,14,14.90
2016,08,15,09,15,14.90
2016,08,15,09,16,14.90
2016,08,15,09,17,14.90
2016,08,15,09,18,14.90
2016,08,15,09,19,14.90
2016,08,15,09,20,14.90
2016,08,15,09,21,14.90
2016,08,15,09,22,14.90
2016,08,15,09,23,14.80
2016,08,15,09,24,14.80
2016,08,15,09,25,14.70
2016,08,15,09,26,14.70
2016,08,15,09,27,14.60
2016,08,15,09,28,14.60
2016,08,15,09,29,14.60
2016,08,15,09,30,14.60
2016,08,15,09,31,14.50
2016,08,15,09,32,14.60
2016,08,15,09,33,14.60
2016,08,15,09,34,14.60
2016,08,15,09,35,14.60
2016,08,15,09,36,14.60
2016,08,15,09,37,14.50
2016,08,15,09,38,14.50
2016,08,15,09,39,14.60
2016,08,15,09,40,14.70
2016,08,15,09,41,14.70
2016,08,15,09,42,14.80
2016,08,15,09,43,14.90
2016,08,15,09,44,15.00
2016,08,15,09,45,15.10
2016,08,15,09,46,15.20
2016,08,15,09,47,15.30
2016,08,15,09,48,15.40
2016,08,15,09,49,15.50
2016,08,15,09,50,15.50
2016,08,15,09,51,15.50
2016,08,15,09,52,15.50
2016,08,15,09,53,15.40
2016,08,15,09,54,15.40
2016,08,15,09,55,15.30
2016,08,15,09,56,15.30
2016,08,15,09,57,15.30
2016,08,15,09,58,15.30
2016,08,15,09,59,15.30
2016,08,15,10,00,15.30
2016,08,15,10,01,15.30
2016,08,15,10,02,15.30
2016,08,15,10,03,15.30
2016,08,15,10,04,15.30
2016,08,15,10,05,15.30
2016,08,15,10,06,15.30
2016,08,15,10,07,15.30
2016,08,15,10,08,15.40
2016,08,15,10,09,15.50
2016,08,15,10,10,15.60
2016,08,15,10,11,15.60
2016,08,15,10,12,15.60
2016,08,15,10,13,15.70
2016,08,15,10,14,15.80
2016,08,15,10,15,15.80
2016,08,15,10,16,15.90
2016,08,15,10,17,16.00
2016,08,15,10,18,16.00
2016,08,15,10,19,15.90
2016,08,15,10,20,15.80
2016,08,15,10,21,15.80
2016,08,15,10,22,15.70
2016,08,15,10,23,15.60
2016,08,15,10,24,15.60
2016,08,15,10,25,15.70
2016,08,15,10,26,15.80
2016,08,15,10,27,15.90
2016,08,15,10,28,15.90
2016,08,15,10,29,15.80
2016,08,15,10,30,15.80
2016,08,15,10,31,15.80
2016,08,15,10,32,15.80
2016,08,15,10,33,15.90
2016,08,15,10,34,15.90
2016,08,15,10,35,15.90
2016,08,15,10,36,15.80
2016,08,15,10,37,15.70
2016,08,15,10,38,15.70
2016,08,15,10,39,15.60
2016,08,15,10,40,15.50
2016,08,15,10,41,15.40
2016,08,15,10,42,15.20
2016,08,15,10,43,15.00
2016,08,15,10,44,14.90
2016,08,15,10,45,14.80
2016,08,15,10,46,14.70
2016,08,15,10,47,14.80
2016,08,15,10,48,14.80
2016,08,15,10,49,14.80
2016,08,15,10,50,14.80
2016,08,15,10,51,14.90
2016,08,15,10,52,15.00
2016,08,15,10,53,15.20
2016,08,15,10,54,15.30
2016,08,15,10,55,15.40
2016,08,15,10,56,15.50
2016,08,15,10,57,15.60
2016,08,15,10,58,15.70
2016,08,15,10,59,15.70
2016,08,15,11,00,15.80
2016,08,15,11,01,15.80
2016,08,15,11,02,15.80
2016,08,15,11,03,15.80
2016,08,15,11,04,15.90
2016,08,15,11,05,16.00
2016,08,15,11,06,16.10
2016,08,15,11,07,16.10
2016,08,15,11,08,16.10
2016,08,15,11,09,16.10
2016,08,15,11,10,16.20
2016,08,15,11,11,16.30
2016,08,15,11,12,16.40
2016,08,15,11,13,16.50
2016,08,15,11,14,16.50
2016,08,15,11,15,16.60
2016,08,15,11,16,16.60
2016,08,15,11,17,16.60
2016,08,15,11,18,16.70
2016,08,15,11,19,16.70
2016,08,15,11,20,16.70
2016,08,15,11,21,16.70
2016,08,15,11,22,16.70
2016,08,15,11,23,16.60
2016,08,15,11,24,16.50
2016,08,15,11,25,16.50
2016,08,15,11,26,16.50
2016,08,15,11,27,16.60
2016,08,15,11,28,16.60
2016,08,15,11,29,16.70
2016,08,15,11,30,16.80
2016,08,15,11,31,16.80
2016,08,15,11,32,16.70
2016,08,15,11,33,16.70
2016,08,15,11,34,16.70
2016,08,15,11,35,16.80
2016,08,15,11,36,16.80
2016,08,15,11,37,16.90
2016,08,15,11,38,16.90
2016,08,15,11,39,17.00
2016,08,15,11,40,17.00
2016,08,15,11,41,17.10
2016,08,15,11,42,17.10
2016,08,15,11,43,17.20
2016,08,15,11,44,17.20
2016,08,15,11,45,17.30
2016,08,15,11,46,17.30
2016,08,15,11,47,17.30
2016,08,15,11,48,17.20
2016,08,15,11,49,17.20
2016,08,15,11,50,17.20
2016,08,15,11,51,17.10
2016,08,15,11,52,17.10
2016,08,15,11,53,17.20
2016,08,15,11,54,17.20
2016,08,15,11,55,17.20
2016,08,15,11,56,17.30
2016,08,15,11,57,17.20
2016,08,15,11,58,17.20
2016,08,15,11,59,17.20
2016,08,15,12,00,17.20
2016,08,15,12,01,17.30
2016,08,15,12,02,17.30
2016,08,15,12,03,17.30
2016,08,15,12,04,17.30
2016,08,15,12,05,17.30
2016,08,15,12,06,17.40
2016,08,15,12,07,17.50
2016,08,15,12,08,17.60
2016,08,15,12,09,17.60
2016,08,15,12,10,17.60
2016,08,15,12,11,17.70
2016,08,15,12,12,17.80
2016,08,15,12,13,17.80
2016,08,15,12,14,17.80
2016,08,15,12,15,17.90
2016,08,15,12,16,17.90
2016,08,15,12,17,17.90
2016,08,15,12,18,17.90
2016,08,15,12,19,17.90
2016,08,15,12,20,18.00
2016,08,15,12,21,18.00
2016,08,15,12,22,18.00
2016,08,15,12,23,18.00
2016,08,15,12,24,18.10
2016,08,15,12,25,18.10
2016,08,15,12,26,18.30
2016,08,15,12,27,18.50
2016,08,15,12,28,18.60
2016,08,15,12,29,18.70
2016,08,15,12,30,18.80
2016,08,15,12,31,18.80
2016,08,15,12,32,18.80
2016,08,15,12,33,18.80
2016,08,15,12,34,18.90
2016,08,15,12,35,19.00
2016,08,15,12,36,19.10
2016,08,15,12,37,19.20
2016,08,15,12,38,19.20
2016,08,15,12,39,19.40
2016,08,15,12,40,19.40
2016,08,15,12,41,19.50
2016,08,15,12,42,19.60
2016,08,15,12,43,19.70
2016,08,15,12,44,19.80
2016,08,15,12,45,19.80
2016,08,15,12,46,19.80
2016,08,15,12,47,19.70
2016,08,15,12,48,19.70
2016,08,15,12,49,19.60
2016,08,15,12,50,19.50
2016,08,15,12,51,19.40
2016,08,15,12,52,19.30
2016,08,15,12,53,19.30
2016,08,15,12,54,19.40
2016,08,15,12,55,19.40
2016,08,15,12,56,19.30
2016,08,15,12,57,19.30
2016,08,15,12,58,19.30
2016,08,15,12,59,19.30
2016,08,15,13,00,19.20
2016,08,15,13,01,19.20
2016,08,15,13,02,19.20
2016,08,15,13,03,19.20
2016,08,15,13,04,19.10
2016,08,15,13,05,19.00
2016,08,15,13,06,18.90
2016,08,15,13,07,18.90
2016,08,15,13,08,18.80
2016,08,15,13,09,18.80
2016,08,15,13,10,18.70
2016,08,15,13,11,18.70
2016,08,15,13,12,18.60
2016,08,15,13,13,18.50
2016,08,15,13,14,18.50
2016,08,15,13,15,18.40
2016,08,15,13,16,18.40
2016,08,15,13,17,18.40
2016,08,15,13,18,18.30
2016,08,15,13,19,18.30
2016,08,15,13,20,18.20
2016,08,15,13,21,18.10
2016,08,15,13,22,18.10
2016,08,15,13,23,18.10
2016,08,15,13,24,18.10
2016,08,15,13,25,18.10
2016,08,15,13,26,18.10
2016,08,15,13,27,18.20
2016,08,15,13,28,18.20
2016,08,15,13,29,18.20
2016,08,15,13,30,18.10
2016,08,15,13,31,18.10
2016,08,15,13,32,18.00
2016,08,15,13,33,18.00
2016,08,15,13,34,18.00
2016,08,15,13,35,18.00
2016,08,15,13,36,17.90
2016,08,15,13,37,17.90
2016,08,15,13,38,17.90
2016,08,15,13,39,18.00
2016,08,15,13,40,18.00
2016,08,15,13,41,18.00
2016,08,15,13,42,18.00
2016,08,15,13,43,18.00
2016,08,15,13,44,18.00
2016,08,15,13,45,18.00
2016,08,15,13,46,18.00
2016,08,15,13,47,18.00
2016,08,15,13,48,17.90
2016,08,15,13,49,17.90
2016,08,15,13,50,17.90
2016,08,15,13,51,18.00
2016,08,15,13,52,18.00
2016,08,15,13,53,18.00
2016,08,15,13,54,18.00
2016,08,15,13,55,18.00
2016,08,15,13,56,18.00
2016,08,15,13,57,17.90
2016,08,15,13,58,17.90
2016,08,15,13,59,17.90
2016,08,15,14,00,18.00
2016,08,15,14,01,18.00
2016,08,15,14,02,18.10
2016,08,15,14,03,18.10
2016,08,15,14,04,18.10
2016,08,15,14,05,18.10
2016,08,15,14,06,18.10
2016,08,15,14,07,18.00
2016,08,15,14,08,18.00
2016,08,15,14,09,17.90
2016,08,15,14,10,18.00
2016,08,15,14,11,18.00
2016,08,15,14,12,17.80
2016,08,15,14,13,17.70
2016,08,15,14,14,17.60
2016,08,15,14,15,17.50
2016,08,15,14,16,17.40
2016,08,15,14,17,17.40
2016,08,15,14,18,17.40
2016,08,15,14,19,17.30
2016,08,15,14,20,17.20
2016,08,15,14,21,17.20
2016,08,15,14,22,17.20
2016,08,15,14,23,17.20
2016,08,15,14,24,17.20
2016,08,15,14,25,17.20
2016,08,15,14,26,17.10
2016,08,15,14,27,17.10
2016,08,15,14,28,17.10
2016,08,15,14,29,17.10
2016,08,15,14,30,17.00
2016,08,15,14,31,17.00
2016,08,15,14,32,17.00
2016,08,15,14,33,17.00
2016,08,15,14,34,16.90
2016,08,15,14,35,16.90
2016,08,15,14,36,17.00
2016,08,15,14,37,17.10
2016,08,15,14,38,17.10
2016,08,15,14,39,17.10
2016,08,15,14,40,17.20
2016,08,15,14,41,17.20
2016,08,15,14,42,17.20
2016,08,15,14,43,17.20
2016,08,15,14,44,17.30
2016,08,15,14,45,17.30
2016,08,15,14,46,17.30
2016,08,15,14,47,17.40
2016,08,15,14,48,17.40
2016,08,15,14,49,17.40
2016,08,15,14,50,17.50
2016,08,15,14,51,17.50
2016,08,15,14,52,17.50
2016,08,15,14,53,17.50
2016,08,15,14,54,17.50
2016,08,15,14,55,17.50
2016,08,15,14,56,17.50
2016,08,15,14,57,17.60
2016,08,15,14,58,17.60
2016,08,15,14,59,17.60
2016,08,15,15,00,17.60
2016,08,15,15,01,17.60
2016,08,15,15,02,17.60
2016,08,15,15,03,17.60
2016,08,15,15,04,17.60
2016,08,15,15,05,17.70
2016,08,15,15,06,17.70
2016,08,15,15,07,17.80
2016,08,15,15,08,17.80
2016,08,15,15,09,17.90
2016,08,15,15,10,17.90
2016,08,15,15,11,17.90
2016,08,15,15,12,18.00
2016,08,15,15,13,18.00
2016,08,15,15,14,18.00
2016,08,15,15,15,18.10
2016,08,15,15,16,18.20
2016,08,15,15,17,18.20
2016,08,15,15,18,18.20
2016,08,15,15,19,18.20
2016,08,15,15,20,18.30
2016,08,15,15,21,18.30
2016,08,15,15,22,18.30
2016,08,15,15,23,18.30
2016,08,15,15,24,18.30
2016,08,15,15,25,18.40
2016,08,15,15,26,18.40
2016,08,15,15,27,18.50
2016,08,15,15,28,18.50
2016,08,15,15,29,18.60
2016,08,15,15,30,18.60
2016,08,15,15,31,18.60
2016,08,15,15,32,18.70
2016,08,15,15,33,18.80
2016,08,15,15,34,18.90
2016,08,15,15,35,19.00
2016,08,15,15,36,19.10
2016,08,15,15,37,19.10
2016,08,15,15,38,19.20
2016,08,15,15,39,19.30
2016,08,15,15,40,19.20
2016,08,15,15,41,19.30
2016,08,15,15,42,19.30
2016,08,15,15,43,19.40
2016,08,15,15,44,19.50
2016,08,15,15,45,19.60
2016,08,15,15,46,19.60
2016,08,15,15,47,19.70
2016,08,15,15,48,19.70
2016,08,15,15,49,19.80
2016,08,15,15,50,19.90
2016,08,15,15,51,19.90
2016,08,15,15,52,20.00
2016,08,15,15,53,20.00
2016,08,15,15,54,20.00
2016,08,15,15,55,20.10
2016,08,15,15,56,20.10
2016,08,15,15,57,20.00
2016,08,15,15,58,20.10
2016,08,15,15,59,20.00
2016,08,15,16,00,20.00
2016,08,15,16,01,20.00
2016,08,15,16,02,19.90
2016,08,15,16,03,19.90
2016,08,15,16,04,20.00
2016,08,15,16,05,20.10
2016,08,15,16,06,20.10
2016,08,15,16,07,20.20
2016,08,15,16,08,20.30
2016,08,15,16,09,20.40
2016,08,15,16,10,20.40
2016,08,15,16,11,20.40
2016,08,15,16,12,20.40
2016,08,15,16,13,20.30
2016,08,15,16,14,20.30
2016,08,15,16,15,20.20
2016,08,15,16,16,20.20
2016,08,15,16,17,20.30
2016,08,15,16,18,20.30
2016,08,15,16,19,20.30
2016,08,15,16,20,20.30
2016,08,15,16,21,20.40
2016,08,15,16,22,20.40
2016,08,15,16,23,20.40
2016,08,15,16,24,20.50
2016,08,15,16,25,20.40
2016,08,15,16,26,20.40
2016,08,15,16,27,20.40
2016,08,15,16,28,20.40
2016,08,15,16,29,20.40
2016,08,15,16,30,20.30
2016,08,15,16,31,20.30
2016,08,15,16,32,20.30
2016,08,15,16,33,20.30
2016,08,15,16,34,20.30
2016,08,15,16,35,20.30
2016,08,15,16,36,20.30
2016,08,15,16,37,20.20
2016,08,15,16,38,20.20
2016,08,15,16,39,20.20
2016,08,15,16,40,20.20
2016,08,15,16,41,20.10
2016,08,15,16,42,20.10
2016,08,15,16,43,20.10
2016,08,15,16,44,20.00
2016,08,15,16,45,19.90
2016,08,15,16,46,19.90
2016,08,15,16,47,19.90
2016,08,15,16,48,19.90
2016,08,15,16,49,19.90
2016,08,15,16,50,19.90
2016,08,15,16,51,19.90
2016,08,15,16,52,19.90
2016,08,15,16,53,19.90
2016,08,15,16,54,19.90
2016,08,15,16,55,19.90
2016,08,15,16,56,19.90
2016,08,15,16,57,19.90
2016,08,15,16,58,19.90
2016,08,15,16,59,19.90
2016,08,15,17,00,20.00
2016,08,15,17,01,20.00
2016,08,15,17,02,20.00
2016,08,15,17,03,20.00
2016,08,15,17,04,20.00
2016,08,15,17,05,20.00
2016,08,15,17,06,19.90
2016,08,15,17,07,19.90
2016,08,15,17,08,19.90
2016,08,15,17,09,19.90
2016,08,15,17,10,19.80
2016,08,15,17,11,19.80
2016,08,15,17,12,19.80
2016,08,15,17,13,19.80
2016,08,15,17,14,19.90
2016,08,15,17,15,20.00
2016,08,15,17,16,20.10
2016,08,15,17,17,20.10
2016,08,15,17,18,20.10
2016,08,15,17,19,20.00